[[{"header":{"parameterUnit":"m.s-1","parameterCategory":1,"la1":30.2991,"la2":30.254,"lo1":-89.0895,"lo2":-89.0444,"dy":0.0017,"dx":0.0017,"nx":28,"ny":28,"refTime":"2023-07-26T21:00:00:Z","depth":0,"parameterNumber":2,"parameterNumberName":"U-component_of_WINDS"},"data":[0,0,0,0,0,0,0,0,0,0,0,0,0,0,0,0,0,0,0,0,0,0,0,0,0,0,0,0,0,0,0,0,0,0,0,0,0,0,0,0,0,0,0,0,0,0,0,0,0,0,0,0,0,0,0,0,0,0,1.7535,1.7536,0,1.7603,1.7604,1.7605,1.7605,1.7604,1.7603,1.7603,1.767,1.7673,1.7675,0,0,0,0,0,0,0,0,0,0,0,0,0,1.7403,1.7405,1.7535,1.7536,1.7537,1.7603,1.7604,1.7605,1.7605,1.7604,1.7603,1.7602,1.7669,1.7673,1.7676,0,0,0,0,0,0,0,0,0,0,0,0,0,1.7465,1.7406,1.7535,1.7545,1.7547,1.7603,1.7604,1.7605,1.7605,1.7604,1.7603,1.7602,1.7668,1.7672,1.7676,1.7726,0,0,1.7688,1.769,0,0,0,0,0,0,0,0,1.7461,1.7469,1.7543,1.7544,1.7546,1.7594,1.7582,1.7646,1.7606,1.7583,1.7603,1.7601,1.7646,1.7652,1.7667,1.7729,1.7732,1.7688,1.7691,1.7692,1.7694,0,0,0,0,0,0,0,1.7457,1.7466,1.7562,1.7544,1.7546,1.7545,1.7553,1.7594,1.7621,1.7585,1.7585,1.7593,1.7647,1.7663,1.7669,1.7733,1.7688,1.7692,1.7694,1.7696,1.7838,1.7839,0,0,0,0,0,0,1.7451,1.7463,1.756,1.7564,1.75,1.7549,1.7557,1.758,1.762,1.7625,1.7594,1.7593,1.7657,1.7664,1.7671,1.7731,1.7692,1.7696,1.7698,1.7836,1.7838,1.7839,0,0,0,0,0,0,1.7448,1.746,1.7557,1.7514,1.7526,1.7552,1.7579,1.7582,1.7599,1.7628,1.7632,1.7607,1.7657,1.7666,1.7712,1.7733,1.7698,1.7701,1.7835,1.7837,1.7839,1.7851,0,0,0,0,0,0,1.7444,1.7458,1.7478,1.7514,1.7528,1.7598,1.758,1.7584,1.7606,1.7605,1.764,1.7645,1.7656,1.7706,1.7716,1.7738,1.7704,1.7833,1.7836,1.7838,1.7849,1.7853,1.7857,0,0,0,0,0,1.744,1.7479,1.7479,1.7491,1.7554,1.7599,1.7607,1.762,1.7608,1.7627,1.7645,1.7644,1.773,1.7711,1.7722,1.7745,1.7831,1.7835,1.7838,1.7847,1.7853,1.7857,0,0,0,0,0,0,1.7445,1.7484,1.7485,1.7537,1.7565,1.7599,1.7624,1.7625,1.7656,1.7654,1.7668,1.7676,1.7722,1.7739,1.7717,1.7795,1.7779,1.7784,1.7782,1.7788,1.7792,1.7786,1.7708,0,0,0,0,0,1.7452,1.7486,1.7519,1.7562,1.7576,1.7597,1.7618,1.7625,1.7654,1.7665,1.7687,1.7714,1.7747,1.7769,1.7801,1.7852,1.7859,1.7873,1.7877,1.7881,1.7885,1.7911,1.7918,1.785,1.785,1.785,0,0,1.7468,1.7493,1.7514,1.7563,1.7586,1.7619,1.7607,1.7644,1.7669,1.7671,1.7715,1.7732,1.7764,1.7812,1.7835,1.7827,1.7905,1.7885,1.7887,1.789,1.7915,1.7922,1.7927,1.7852,1.7852,1.7851,0,0,1.7513,1.7536,1.7574,1.7596,1.763,1.7644,1.7653,1.7687,1.7699,1.7744,1.7746,1.7775,1.7832,1.7854,1.7873,1.7925,1.7924,1.7935,1.7956,1.7982,1.7987,1.7992,1.8009,1.8015,1.7939,1.794,1.794,0,1.7527,1.7579,1.7593,1.763,1.765,1.7654,1.7692,1.7713,1.7755,1.7769,1.7761,1.7831,1.7853,1.7905,1.7918,1.7934,1.7943,1.793,1.7986,1.799,1.7995,1.8011,1.8018,1.7941,1.794,1.794,1.794,0,1.7594,1.763,1.7656,1.7697,1.7721,1.7758,1.7777,1.7799,1.7805,1.7819,1.7865,1.7891,1.7927,1.7941,1.7947,1.7994,1.7988,1.7983,1.7967,1.8002,1.8018,1.8024,1.7942,1.7942,1.7941,1.7941,0,0,1.7644,1.7692,1.7701,1.7719,1.7756,1.7784,1.782,1.7856,1.7875,1.7904,1.7933,1.7981,1.7976,1.7997,1.8005,1.8028,1.8066,1.8019,1.802,1.8025,1.8118,1.812,1.8127,1.8066,1.8067,1.8068,1.8114,0,1.7691,1.7757,1.777,1.7826,1.7858,1.7862,1.7894,1.7919,1.7934,1.7963,1.7979,1.8012,1.8004,1.8016,1.8039,1.8056,1.8084,1.8053,1.8092,1.8093,1.8082,1.8136,1.8139,1.8182,1.8121,1.8122,1.8122,0,1.7755,1.7786,1.7845,1.7877,1.7891,1.7919,1.7953,1.7981,1.801,1.8019,1.8042,1.8047,1.8084,1.8067,1.8117,1.8096,1.8113,1.8124,1.8126,1.8128,1.8109,1.8138,1.8196,1.8201,1.8132,1.8132,1.8131,0,1.7783,1.7839,1.7882,1.7897,1.7936,1.7955,1.7972,1.8,1.802,1.8049,1.8063,1.8096,1.8113,1.8138,1.8152,1.8139,1.8201,1.8185,1.8208,1.8207,1.8219,1.8218,1.8278,1.8233,1.8233,1.8233,1.8233,0,1.7834,1.7869,1.7894,1.792,1.796,1.7975,1.8013,1.803,1.8054,1.8082,1.8088,1.8114,1.8132,1.816,1.8171,1.821,1.8219,1.8226,1.8228,1.8224,1.8223,1.8234,1.8231,1.8234,1.8234,1.8234,1.8233,0,1.7871,1.7889,1.7935,1.7968,1.7977,1.8005,1.8033,1.8057,1.8072,1.8108,1.8117,1.814,1.8173,1.819,1.8232,1.8239,1.8282,1.8284,1.8273,1.8273,1.8294,1.8291,1.8362,1.8371,1.8321,1.8322,1.8322,0,1.7901,1.7929,1.7964,1.7984,1.8001,1.8033,1.8054,1.8069,1.8091,1.8125,1.8145,1.8179,1.8207,1.826,1.828,1.8312,1.8313,1.8336,1.8318,1.8313,1.8311,1.8309,1.8311,1.8338,1.8339,1.8339,1.8339,0,1.7952,1.796,1.799,1.8023,1.8048,1.8075,1.8101,1.8117,1.8136,1.816,1.8194,1.8216,1.8258,1.8292,1.8325,1.8341,1.8343,1.8345,1.8352,1.8347,1.8339,1.8342,1.828,1.8343,1.8343,1.8342,1.8342,1.8342,1.7985,1.8009,1.8038,1.8071,1.8093,1.8117,1.8141,1.8159,1.8189,1.8225,1.8232,1.8268,1.8295,1.834,1.8357,1.8385,1.838,1.839,1.8392,1.8394,1.8394,1.8336,1.8391,1.8391,1.8391,1.8391,1.8391,0,1.8035,1.8054,1.8084,1.8121,1.8146,1.8147,1.8176,1.8197,1.8229,1.8254,1.8282,1.8321,1.8353,1.8375,1.8408,1.8425,1.8427,1.8433,1.8431,1.8435,1.8398,1.8388,1.8431,1.8431,1.8431,1.8431,1.8431,1.8431,1.8064,1.8104,1.8115,1.8165,1.8184,1.8219,1.8236,1.8257,1.8278,1.8321,1.8348,1.8362,1.8386,1.842,1.8449,1.8455,1.8466,1.8472,1.8477,1.8442,1.8437,1.8433,1.8424,1.8474,1.8474,1.8511,1.8512,1.8512]},{"header":{"parameterUnit":"m.s-1","parameterCategory":1,"la1":30.2991,"la2":30.254,"lo1":-89.0895,"lo2":-89.0444,"dy":0.0017,"dx":0.0017,"nx":28,"ny":28,"refTime":"2023-07-26T21:00:00:Z","depth":0,"parameterNumber":3,"parameterNumberName":"V-component_of_WINDS"},"data":[0,0,0,0,0,0,0,0,0,0,0,0,0,0,0,0,0,0,0,0,0,0,0,0,0,0,0,0,0,0,0,0,0,0,0,0,0,0,0,0,0,0,0,0,0,0,0,0,0,0,0,0,0,0,0,0,0,0,2.9009,2.9008,0,2.8931,2.893,2.8929,2.8844,2.8843,2.8842,2.8841,2.8759,2.8758,2.8757,0,0,0,0,0,0,0,0,0,0,0,0,0,2.9083,2.9082,2.9009,2.9008,2.9007,2.8931,2.893,2.8929,2.8844,2.8843,2.8842,2.884,2.8759,2.8758,2.8757,0,0,0,0,0,0,0,0,0,0,0,0,0,2.9032,2.9082,2.901,2.8956,2.895,2.8932,2.893,2.8929,2.8845,2.8843,2.8841,2.8839,2.876,2.8758,2.8757,2.8784,0,0,2.8752,2.8751,0,0,0,0,0,0,0,0,2.9035,2.903,2.8965,2.896,2.8953,2.8896,2.8926,2.888,2.8845,2.8885,2.8841,2.8839,2.8806,2.88,2.879,2.878,2.8776,2.8752,2.8751,2.875,2.875,0,0,0,0,0,0,0,2.9039,2.9033,2.8978,2.8964,2.8957,2.8935,2.8926,2.8917,2.8857,2.8881,2.8875,2.8867,2.8802,2.8791,2.8787,2.8775,2.8752,2.8751,2.875,2.8749,2.8781,2.8782,0,0,0,0,0,0,2.9051,2.9036,2.8981,2.8976,2.8991,2.8935,2.8925,2.8916,2.8856,2.8846,2.8869,2.8863,2.8795,2.8789,2.8784,2.8809,2.875,2.8749,2.8748,2.8779,2.8781,2.8783,0,0,0,0,0,0,2.9053,2.9047,2.8984,2.9004,2.8995,2.8936,2.8927,2.8915,2.8904,2.8847,2.8835,2.8869,2.8793,2.8786,2.8784,2.8806,2.8748,2.8747,2.8777,2.878,2.8782,2.8862,0,0,0,0,0,0,2.9055,2.9048,2.9058,2.9005,2.8994,2.8986,2.8928,2.8915,2.8902,2.8894,2.8844,2.8834,2.8791,2.8787,2.8782,2.8802,2.8745,2.8775,2.8778,2.8781,2.8858,2.8868,2.8876,0,0,0,0,0,2.9058,2.9084,2.9059,2.9053,2.9006,2.8988,2.8981,2.8932,2.8904,2.8913,2.8876,2.8835,2.8804,2.8787,2.8782,2.8802,2.8773,2.8777,2.8781,2.8853,2.8866,2.8876,0,0,0,0,0,0,2.9141,2.9076,2.9048,2.9058,2.9029,2.8974,2.8984,2.8947,2.8925,2.8919,2.8859,2.8848,2.8852,2.8827,2.8809,2.8823,2.8783,2.8786,2.884,2.8851,2.886,2.8865,2.8744,0,0,0,0,0,2.9161,2.9152,2.9096,2.911,2.9097,2.9043,2.9034,2.8998,2.8966,2.8953,2.8916,2.8885,2.8868,2.8858,2.884,2.8854,2.884,2.8865,2.8874,2.8882,2.8885,2.8888,2.8897,2.8796,2.8796,2.8796,0,0,2.9201,2.9164,2.9163,2.9126,2.9099,2.909,2.9033,2.9027,2.902,2.8952,2.8947,2.8919,2.888,2.8886,2.8887,2.8865,2.891,2.8887,2.8894,2.8892,2.8893,2.8902,2.8911,2.8799,2.8798,2.8798,0,0,2.9269,2.9241,2.9249,2.9224,2.9184,2.9148,2.915,2.91,2.9078,2.9073,2.9021,2.9011,2.8984,2.8958,2.8941,2.8999,2.8959,2.8994,2.9042,2.9046,2.9054,2.906,2.9079,2.9086,2.8998,2.8998,2.8998,0,2.9323,2.9309,2.9257,2.9254,2.9238,2.9177,2.9183,2.9161,2.9118,2.9108,2.9084,2.9047,2.9017,2.9015,2.9029,2.9018,2.9017,2.8999,2.9057,2.9063,2.9069,2.9085,2.9093,2.9002,2.9002,2.9001,2.9001,0,2.9377,2.9368,2.9379,2.9338,2.9324,2.9326,2.9273,2.9265,2.9231,2.9197,2.9191,2.9153,2.9124,2.9121,2.9088,2.9114,2.9101,2.9068,2.9026,2.9084,2.9098,2.9104,2.9008,2.9007,2.9006,2.9004,0,0,2.9495,2.9425,2.943,2.941,2.9362,2.9353,2.9351,2.9324,2.9317,2.9289,2.9285,2.9262,2.9231,2.9212,2.9176,2.918,2.9225,2.9145,2.9144,2.916,2.9247,2.9271,2.928,2.9199,2.92,2.9201,2.925,0,2.9553,2.9546,2.9499,2.9506,2.9496,2.9437,2.9435,2.9404,2.9372,2.9358,2.9322,2.9307,2.9268,2.9256,2.9257,2.9219,2.9241,2.9215,2.9192,2.9192,2.9202,2.9288,2.9313,2.9362,2.9256,2.9257,2.9257,0,2.962,2.9595,2.9601,2.9551,2.9545,2.9545,2.9515,2.9503,2.9466,2.9442,2.9421,2.938,2.9373,2.9335,2.9323,2.9306,2.9294,2.9274,2.9274,2.9269,2.9227,2.9283,2.9376,2.9383,2.9266,2.9265,2.9265,0,2.9702,2.9672,2.967,2.9655,2.9598,2.9598,2.9574,2.9536,2.9522,2.9496,2.9486,2.9459,2.9444,2.9424,2.9376,2.9353,2.9369,2.9327,2.9347,2.9348,2.9352,2.9352,2.9443,2.9348,2.9348,2.9348,2.9347,0,2.9771,2.9776,2.9706,2.9706,2.9709,2.9655,2.966,2.963,2.9596,2.9587,2.9535,2.9528,2.9465,2.945,2.9413,2.9408,2.9402,2.9381,2.9371,2.9385,2.9387,2.9375,2.9369,2.9349,2.9349,2.9349,2.9348,0,2.9863,2.9817,2.9812,2.9758,2.9744,2.9749,2.9702,2.9698,2.9663,2.9653,2.9647,2.9591,2.9571,2.9521,2.9488,2.9462,2.9466,2.9448,2.9479,2.9472,2.9494,2.9492,2.9579,2.9586,2.9489,2.949,2.9491,0,2.991,2.9912,2.9858,2.9849,2.9827,2.9813,2.9798,2.9745,2.9731,2.9689,2.969,2.9666,2.9643,2.9613,2.9569,2.9542,2.9522,2.9554,2.9518,2.9531,2.952,2.952,2.9519,2.9562,2.9563,2.9564,2.9565,0,2.9995,2.9972,2.9954,2.9927,2.9911,2.9887,2.986,2.9855,2.9794,2.9782,2.976,2.9743,2.9708,2.9684,2.965,2.9624,2.9584,2.9577,2.958,2.9594,2.961,2.9599,2.9499,2.9575,2.9574,2.9573,2.9573,2.9573,3.0064,3.0063,3.0025,3.0005,2.998,2.9955,2.9949,2.9913,2.9894,2.9862,2.9832,2.9813,2.9774,2.9726,2.9702,2.9685,2.9665,2.967,2.9671,2.9672,2.9678,2.9615,2.9679,2.9679,2.9678,2.9678,2.9678,0,3.0146,3.0118,3.0101,3.0065,3.0049,3.0014,2.9982,2.9971,2.9955,2.9923,2.9902,2.9877,2.9852,2.9806,2.9778,2.9773,2.9754,2.9767,2.9766,2.976,2.9698,2.9698,2.9783,2.9783,2.9783,2.9783,2.9783,2.9783,3.0186,3.0182,3.0154,3.0136,3.0108,3.0089,3.0074,3.0051,3.0025,2.9999,2.9979,2.9949,2.9911,2.9879,2.9854,2.9841,2.9832,2.9851,2.9832,2.9775,2.9765,2.9755,2.9754,2.985,2.985,2.9894,2.9895,2.9895]}]]